Tracking 29892 objects as of 21-Nov-2024
HD Live streaming from Space Station
objects crossing your sky now

SL-16 DEB

Track SL-16 DEB now!
10-day predictions


NORAD ID: 22476
Int'l Code: 1992-093FR
Perigee: 820.9 km
Apogee: 1,518.9 km
Inclination: 71.5 °
Period: 108.6 minutes
Semi major axis: 7540 km
RCS: 0.0101 m2 (small)
Launch date: December 25, 1992
Source: Commonwealth of Independent States (former USSR) (CIS)
Launch site: TYURATAM MISSILE AND SPACE COMPLEX (TTMTR)

Note: This is SATELLITE DEBRIS
Your satellite tracking list
Your tracking list is empty




NASA's NSSDC Master Catalog

Two Line Element Set (TLE):
1 22476U 92093FR  24323.91199921  .00002435  00000-0  31585-2 0  9997
2 22476  71.5486 278.3753 0462799  63.4224 301.3509 13.25762452526952
Source of the keplerian elements: AFSPC